This is the latest recevied weather packets stored in our database for station/object IK2ILW-4. If no packets are shown the sender has not sent any weather packets the latest 10 day(s).
| Time | Temp. | Humidity | Pressure | Rain* | Wind** | Luminosity | Snow |
|---|---|---|---|---|---|---|---|
| 1787918572 | 23.89° C | 60% | 1022.3 hPa | 0.76 mm | - | 357 W/m² | - |
| 1787918268 | 23.89° C | 59% | 1021.9 hPa | 0.76 mm | - | 278 W/m² | - |
| 1787917958 | 23.89° C | 58% | 1021.9 hPa | 0.76 mm | - | 364 W/m² | - |
| 1787917659 | 23.89° C | 57% | 1021.9 hPa | 0.76 mm | - | 192 W/m² | - |
| 1787917354 | 24.44° C | 56% | 1021.8 hPa | 0.76 mm | - | 527 W/m² | - |
| 1787917064 | 23.89° C | 57% | 1021.8 hPa | 0.76 mm | - | 360 W/m² | - |
| 1787916755 | 24.44° C | 55% | 1021.8 hPa | 0.76 mm | - | 747 W/m² | - |
| 1787916469 | 23.89° C | 57% | 1022 hPa | 0.76 mm | - | 728 W/m² | - |
| 1787916164 | 23.33° C | 56% | 1022 hPa | 0.76 mm | - | 745 W/m² | - |
| 1787915874 | 23.33° C | 54% | 1022 hPa | 0.76 mm | - | 309 W/m² | - |
| 1787915571 | 23.33° C | 54% | 1022.4 hPa | 0.76 mm | - | 664 W/m² | - |
| 1787914970 | 23.33° C | 54% | 1022.4 hPa | 0.76 mm | - | 853 W/m² | - |
| 1787914655 | 23.33° C | 56% | 1022.8 hPa | 0.76 mm | - | 926 W/m² | - |
| 1787914350 | 22.78° C | 57% | 1022.8 hPa | 0.76 mm | - | 373 W/m² | - |
| 1787914061 | 22.78° C | 56% | 1022.8 hPa | 0.76 mm | - | 185 W/m² | - |
| 1787913755 | 22.78° C | 57% | 1022.8 hPa | 0.76 mm | - | 236 W/m² | - |
| 1787913455 | 22.78° C | 60% | 1022.8 hPa | 0.76 mm | - | 230 W/m² | - |
| 1787913149 | 22.78° C | 57% | 1022.8 hPa | 0.76 mm | - | 315 W/m² | - |
| 1787912870 | 22.78° C | 57% | 1022.9 hPa | 0.76 mm | - | 301 W/m² | - |
| 1787912557 | 22.78° C | 58% | 1022.9 hPa | 0.76 mm | - | 315 W/m² | - |
| 1787912264 | 22.78° C | 61% | 1022.9 hPa | 0.76 mm | - | 322 W/m² | - |
| 1787911960 | 22.22° C | 59% | 1022.9 hPa | 0.76 mm | - | 327 W/m² | - |
| 1787911655 | 22.78° C | 61% | 1022.9 hPa | 0.76 mm | - | 334 W/m² | - |
| 1787911369 | 22.78° C | 58% | 1022.9 hPa | 0.76 mm | - | 603 W/m² | - |
| 1787911054 | 22.78° C | 58% | 1022.9 hPa | 0.76 mm | - | 768 W/m² | - |
* Rain since midnight (hover to see other rain measurements)
** Current wind speed in m/s (hover to see current wind gust speed)